Weather History for Waukesha, WI

Change the Weather History Date:

Sunday, January 22, 2012

  Actual Average Record
Temperature  
Mean Temperature 24 °F -  
Max Temperature 32 °F 31 °F 53 °F (1964)
Min Temperature 15 °F 16 °F -14 °F (1963)
Degree Days  
Heating Degree Days 42    
Moisture  
Dew Point 22 °F    
Average Humidity 93    
Maximum Humidity 100    
Minimum Humidity 79    
Precipitation  
Precipitation 0.00 in - - ()
Sea Level Pressure  
Sea Level Pressure 29.80 in    
Wind  
Wind Speed 9 mph (SE)    
Max Wind Speed 15 mph    
Max Gust Speed 23 mph    
Visibility 5 miles    
Events Fog    
Averages and records for this station are not official NWS values.
T = Trace of Precipitation, MM = Missing Value Source: NWS Daily Summary

Daily Weather History Graph

Daily Weather History Graph

Search for Another Location

Airport:

Trip Planner

Search our weather history database for the weather conditions in past years. The results will help you decide how hot, cold, wet, or windy it might be!

Date:

Astronomy

Jan. 22, 2012 Rise Set
Actual Time 7:17 AM CST 4:51 PM CST
Civil Twilight 6:46 AM CST 5:22 PM CST
Nautical Twilight 6:11 AM CST 5:57 PM CST
Astronomical Twilight 5:38 AM CST 6:31 PM CST
Moon 6:34 AM CST 4:34 PM CST
Length of Visible Light 10h 36m
Length of Day
9h 34m
Waning Crescent, 0% of the Moon is Illuminated
Jan 22
Waning Crescent
Jan 23
New
Jan 30
First Quarter
Feb 7
Full
Feb 14
Last Quarter

Hourly Weather History & Observations

Time (CST) Temp. Windchill Dew Point Humidity Pressure Visibility Wind Dir Wind Speed Gust Speed Precip Events Conditions
12:15 AM 17.6 °F 9.3 °F 12.2 °F 79% 30.07 in 10.0 mi SSE 5.8 mph - N/A   Clear
12:35 AM 17.6 °F 7.3 °F 12.2 °F 79% 30.06 in 10.0 mi SSE 8.1 mph - N/A   Clear
12:55 AM 17.6 °F 5.7 °F 12.2 °F 79% 30.07 in 10.0 mi SSE 10.4 mph - N/A   Clear
1:15 AM 17.6 °F 7.3 °F 12.2 °F 79% 30.06 in 10.0 mi SSE 8.1 mph - N/A   Clear
1:35 AM 17.6 °F 7.3 °F 12.2 °F 79% 30.05 in 10.0 mi SSE 8.1 mph - N/A   Clear
2:15 AM 17.6 °F 6.4 °F 14.0 °F 86% 30.02 in 10.0 mi SE 9.2 mph - N/A   Clear
2:35 AM 17.6 °F 7.3 °F 14.0 °F 86% 30.00 in 10.0 mi SE 8.1 mph - N/A   Clear
2:55 AM 17.6 °F 8.2 °F 14.0 °F 86% 30.00 in 10.0 mi SE 6.9 mph - N/A   Clear
3:15 AM 17.6 °F 7.3 °F 14.0 °F 86% 29.99 in 10.0 mi SSE 8.1 mph - N/A   Clear
3:35 AM 17.6 °F 6.4 °F 14.0 °F 86% 29.98 in 10.0 mi SE 9.2 mph - N/A   Scattered Clouds
3:55 AM 19.4 °F 7.9 °F 15.8 °F 86% 29.98 in 10.0 mi SE 10.4 mph - N/A   Scattered Clouds
4:15 AM 17.6 °F 8.2 °F 15.8 °F 93% 29.97 in 10.0 mi SE 6.9 mph - N/A   Mostly Cloudy
4:35 AM 17.6 °F 7.3 °F 15.8 °F 93% 29.96 in 10.0 mi SE 8.1 mph - N/A   Mostly Cloudy
5:45 AM 17.6 °F 6.4 °F 15.8 °F 93% 29.95 in 10.0 mi SE 9.2 mph - N/A   Overcast
6:45 AM 15.8 °F 1.4 °F 12.2 °F 86% 29.94 in 10.0 mi SE 13.8 mph 21.9 mph N/A   Overcast
7:10 AM 15.8 °F 2.7 °F 12.2 °F 86% 29.93 in 3.0 mi SSE 11.5 mph - N/A   Overcast
7:45 AM 15.8 °F 2.7 °F 14.0 °F 93% 29.92 in 1.5 mi SE 11.5 mph 23.0 mph N/A   Overcast
8:45 AM 17.6 °F 3.2 °F 17.6 °F 100% 29.88 in 2.0 mi SE 15.0 mph 23.0 mph N/A   Overcast
10:45 AM 21.2 °F 10.1 °F 21.2 °F 100% 29.87 in 1.5 mi SSE 10.4 mph - N/A   Overcast
12:45 PM 24.8 °F 14.0 °F 24.8 °F 100% 29.78 in 1.0 mi SE 11.5 mph - N/A   Overcast
2:45 PM 26.6 °F 16.2 °F 26.6 °F 100% 29.74 in 0.8 mi SE 11.5 mph - N/A   Overcast
3:45 PM 28.4 °F 17.5 °F 28.4 °F 100% 29.72 in 0.8 mi SE 13.8 mph - N/A   Overcast
4:45 PM 28.4 °F 19.7 °F 28.4 °F 100% 29.71 in 1.0 mi SE 9.2 mph - N/A   Overcast
7:45 PM 30.2 °F 21.9 °F 30.2 °F 100% 29.65 in 1.0 mi ESE 9.2 mph - N/A   Overcast
8:15 PM 32.0 °F 24.8 °F 32.0 °F 100% 29.64 in 1.0 mi SE 8.1 mph - N/A   Overcast
8:35 PM 32.0 °F 24.8 °F 32.0 °F 100% 29.63 in 1.0 mi SE 8.1 mph - N/A   Overcast
8:45 PM 30.2 °F 22.6 °F 30.2 °F 100% 29.63 in 1.0 mi SE 8.1 mph - N/A   Overcast
8:55 PM 32.0 °F 24.8 °F 32.0 °F 100% 29.62 in 0.8 mi SE 8.1 mph - N/A   Overcast
9:15 PM 32.0 °F 24.2 °F 32.0 °F 100% 29.60 in 1.0 mi SE 9.2 mph - N/A   Overcast
9:35 PM 32.0 °F 24.8 °F 32.0 °F 100% 29.57 in 0.8 mi ESE 8.1 mph - N/A   Overcast
9:55 PM 32.0 °F 27.5 °F 32.0 °F 100% 29.55 in 0.5 mi ESE 4.6 mph - N/A Fog Fog
10:15 PM 32.0 °F 24.8 °F 32.0 °F 100% 29.52 in 0.5 mi ESE 8.1 mph - N/A Fog Fog
10:35 PM 32.0 °F 25.6 °F 32.0 °F 100% 29.51 in 0.2 mi East 6.9 mph - N/A   Light Drizzle
10:55 PM 32.0 °F 26.4 °F 32.0 °F 100% 29.50 in 0.5 mi East 5.8 mph - N/A   Drizzle
11:15 PM 32.0 °F 25.6 °F 32.0 °F 100% 29.48 in 0.8 mi East 6.9 mph - N/A   Drizzle
11:35 PM 32.0 °F 26.4 °F 32.0 °F 100% 29.47 in 0.8 mi East 5.8 mph - N/A   Light Drizzle
11:55 PM 32.0 °F 25.6 °F 32.0 °F 100% 29.45 in 0.8 mi East 6.9 mph - N/A   Overcast